Location: Mahannah Oil Field
(37.4664°N, 96.6003°W)
Time: 01:29:53
(UTC+00:00)

Tiros 1 despin weight - Pass Details

Date: 02 February 2021
Orbit: 593 x 642 km, 48.2° (Epoch: 25 February)

Event Time Altitude Azimuth Distance (km) Brightness Sun altitude
Rises 15:39:21 0° 205° (SSW) 2,925 ? 21.2°
Reaches altitude 10° 15:41:55 10° 194° (SSW) 2,017 ? 21.6°
Maximum altitude 15:45:54 28° 135° (SE) 1,176 ? 22.2°
Drops below altitude 10° 15:49:52 10° 76° (ENE) 2,007 ? 22.7°
Sets 15:52:24 0° 65° (ENE) 2,910 ? 23.1°
